FLOCK 4Q 18

导读

FLOCK 4Q 18是美国Planet公司Flock鸽群遥感星座的一颗成员卫星,于2023年11月11日发射入轨。作为3U立方体微纳卫星,单星重约5kg,配备光学成像载荷,可实现对地3-5米分辨率的光学观测。该卫星加入PlanetScope星座后,将助力实现全球陆地每日成像覆盖,为农业监测、自然资源调查、灾害评估等领域提供高频次遥感数据支撑,延续了鸽群星座高频更新全球地表影像的服务能力。

Basic Information
目录编号:
58305
目录名称:
FLOCK 4Q 18
国际标识:
2023-174BB
轨道中心:
EARTH
卫星名称:
FLOCK 4Q 18
卫星全名:
--
卫星状态:
已陨落 最后检测时间 2025-01-11
发射日期:
2023-11-11 UTC
国别 :
美国 (US)
星等 :
--
Orbit Information
数据来源 国际轨道数据
星历时间: 2025-01-05T20:36:41+0800
轨道信息已过期568天
半长轴: 6585.048km
偏心率: 0.0007726
轨道倾角: 97.401°
近地点辐角 278.127°
升交点赤经 90.997°
平近点角 81.914°
近地点: 201.825km
远地点: 212.001km
周期: 88.634分钟
每日圈数: 16.246673
Detailed Information
使用方式:
暂无